Location: Moscow
(55.7500°N, 37.5830°E)
Time: 11:28:33
(UTC+03:00)

Vanguard 3 - Pass Details

Date: 08 December 2021
Orbit: 508 x 3260 km, 33.3° (Epoch: 19 January)

Event Time Altitude Azimuth Distance (km) Brightness Sun altitude
Rises 04:35:42 0° 239° (WSW) 6,970 - -33.4°
Reaches altitude 10° 04:40:53 10° 231° (SW) 6,114 - -32.7°
Exits shadow 04:46:59 22° 217° (SW) 5,231 10.8 -31.8°
Maximum altitude 04:57:02 34° 177° (S) 4,385 10.7 -30.4°
Drops below altitude 10° 05:11:00 10° 122° (ESE) 5,306 12.0 -28.5°
Sets 05:15:05 0° 113° (ESE) 5,979 12.6 -27.9°
